[[{"header":{"parameterUnit":"m.s-1","parameterCategory":1,"la1":30.2992,"la2":30.254,"lo1":-89.0895,"lo2":-89.0443,"dy":0.0025,"dx":0.0025,"nx":19,"ny":19,"refTime":"2026-04-30T21:00:00:Z","depth":0,"parameterNumber":2,"parameterNumberName":"U-component_of_WINDS"},"data":[0,0,0,-1.2666,-1.2666,-1.2632,-1.2632,-1.2628,-1.2628,0,0,0,0,0,0,0,0,0,0,0,-1.2698,-1.2698,-1.2666,-1.2666,-1.2632,-1.2632,-1.2628,-1.2628,0,0,0,0,0,0,0,0,0,0,0,-1.2697,-1.2698,-1.2699,-1.2666,-1.2632,-1.2632,-1.2627,-1.264,0,0,0,0,0,0,0,0,0,0,-1.2666,-1.2715,-1.2698,-1.2699,-1.2666,-1.2632,-1.2632,-1.264,-1.2639,-1.2659,0,-1.2681,0,-1.2654,-1.263,-1.263,0,0,0,-1.265,-1.2716,-1.2687,-1.2699,-1.2666,-1.2632,-1.2643,-1.2639,-1.2638,-1.2658,-1.268,-1.2679,-1.2654,-1.263,-1.263,-1.2796,-1.2798,0,0,-1.2652,-1.2703,-1.2688,-1.2688,-1.2693,-1.2644,-1.2642,-1.2638,-1.2666,-1.268,-1.2678,-1.2654,-1.263,-1.2631,-1.2795,-1.2797,0,0,0,-1.2668,-1.2706,-1.2676,-1.2689,-1.268,-1.2644,-1.2641,-1.2666,-1.2652,-1.2678,-1.2654,-1.2631,-1.2631,-1.2793,-1.2795,-1.2921,0,0,0,-1.2668,-1.2714,-1.2678,-1.2709,-1.2681,-1.2672,-1.267,-1.2652,-1.265,-1.2654,-1.2631,-1.2631,-1.2791,-1.2794,-1.2914,-1.2972,0,0,0,-1.2693,-1.2717,-1.2719,-1.2712,-1.2699,-1.2671,-1.2656,-1.2651,-1.2637,-1.263,-1.2631,-1.279,-1.2794,-1.2907,-1.2961,-1.3033,0,0,0,-1.2733,-1.283,-1.2722,-1.2822,-1.2699,-1.2748,-1.2656,-1.2689,-1.2699,-1.2631,-1.2791,-1.2795,-1.2905,-1.2955,-1.3027,-1.3104,-1.314,0,0,-1.2884,-1.285,-1.2905,-1.2807,-1.2888,-1.2749,-1.2849,-1.2809,-1.2762,-1.2788,-1.2791,-1.2916,-1.2961,-1.3032,-1.3322,-1.3351,0,0,0,-1.297,-1.301,-1.302,-1.3032,-1.3003,-1.2985,-1.2924,-1.291,-1.293,-1.2785,-1.2958,-1.2983,-1.3023,-1.3058,-1.3083,-1.3115,-1.2813,-1.2812,-1.2812,-1.3258,-1.3193,-1.328,-1.3211,-1.3224,-1.3161,-1.3166,-1.3136,-1.3066,-1.3109,-1.3117,-1.33,-1.3343,-1.3361,-1.3396,-1.315,-1.315,-1.3151,-1.3151,-1.3475,-1.3523,-1.3429,-1.3479,-1.3411,-1.3453,-1.3399,-1.3348,-1.3379,-1.3288,-1.332,-1.3228,-1.3395,-1.3422,-1.316,-1.3158,-1.3157,-1.3156,-1.3156,-1.3659,-1.367,-1.3651,-1.3662,-1.3679,-1.3606,-1.3642,-1.3577,-1.3517,-1.3548,-1.3552,-1.3549,-1.3541,-1.3554,-1.3554,-1.3555,-1.3556,-1.3556,-1.3556,-1.3857,-1.3831,-1.3868,-1.3848,-1.3848,-1.3841,-1.3781,-1.378,-1.3763,-1.3714,-1.3714,-1.3643,-1.3423,-1.3371,-1.3566,-1.3564,-1.3563,-1.3562,-1.3562,-1.4106,-1.404,-1.4097,-1.4097,-1.407,-1.4094,-1.401,-1.4015,-1.4005,-1.4026,-1.3947,-1.3794,-1.3755,-1.3735,-1.3692,-1.3959,-1.3959,-1.3959,-1.3959,-1.4262,-1.4236,-1.4281,-1.4287,-1.4285,-1.4217,-1.4288,-1.4244,-1.4188,-1.4179,-1.413,-1.4066,-1.4048,-1.402,-1.3994,-1.3952,-1.4279,-1.428,-1.428,-1.4413,-1.4384,-1.4455,-1.4398,-1.4373,-1.4355,-1.442,-1.4433,-1.4355,-1.4292,-1.4171,-1.4157,-1.4053,-1.4022,-1.3958,-1.3918,-1.3841,0,0]},{"header":{"parameterUnit":"m.s-1","parameterCategory":1,"la1":30.2992,"la2":30.254,"lo1":-89.0895,"lo2":-89.0443,"dy":0.0025,"dx":0.0025,"nx":19,"ny":19,"refTime":"2026-04-30T21:00:00:Z","depth":0,"parameterNumber":3,"parameterNumberName":"V-component_of_WINDS"},"data":[0,0,0,2.5604,2.5608,2.5852,2.5853,2.6114,2.6116,0,0,0,0,0,0,0,0,0,0,0,2.5502,2.5503,2.5604,2.5609,2.5851,2.5853,2.6113,2.6116,0,0,0,0,0,0,0,0,0,0,0,2.5502,2.5503,2.5504,2.561,2.5851,2.5853,2.6113,2.5947,0,0,0,0,0,0,0,0,0,0,2.572,2.5597,2.5503,2.5504,2.5611,2.5851,2.5853,2.594,2.5957,2.5983,0,2.5997,0,2.606,2.613,2.6131,0,0,0,2.5631,2.5582,2.5675,2.5504,2.5613,2.585,2.5748,2.595,2.597,2.6005,2.6002,2.6013,2.6065,2.6131,2.6132,2.6207,2.6207,0,0,2.5617,2.553,2.5661,2.5686,2.5646,2.574,2.5755,2.5963,2.5953,2.6003,2.602,2.6069,2.6133,2.6134,2.6208,2.6207,0,0,0,2.5564,2.5519,2.5608,2.5674,2.5721,2.5747,2.5764,2.5944,2.598,2.6023,2.6072,2.6134,2.6137,2.6209,2.6208,2.609,0,0,0,2.5557,2.5489,2.5601,2.555,2.5717,2.5836,2.5739,2.5965,2.5992,2.6071,2.6134,2.6139,2.621,2.6208,2.6095,2.6048,0,0,0,2.5497,2.5482,2.5507,2.5544,2.5646,2.5834,2.5884,2.5973,2.6021,2.6131,2.6139,2.621,2.6209,2.61,2.6056,2.6043,0,0,0,2.5406,2.5397,2.5503,2.5513,2.5643,2.576,2.5883,2.5974,2.6055,2.6135,2.621,2.6208,2.6101,2.6061,2.6047,2.6016,2.5995,0,0,2.5346,2.5387,2.54,2.5502,2.5577,2.573,2.5789,2.5945,2.6035,2.6144,2.6148,2.6094,2.6057,2.6044,2.5909,2.5891,0,0,0,2.5351,2.5358,2.5398,2.5471,2.5591,2.5691,2.5847,2.5905,2.6004,2.6073,2.6089,2.6069,2.6065,2.6055,2.604,2.6043,2.6199,2.6199,2.62,2.5138,2.5256,2.5285,2.5432,2.5501,2.5665,2.5732,2.5838,2.5935,2.5936,2.5969,2.5873,2.5857,2.5846,2.5847,2.5963,2.5962,2.5962,2.5962,2.5061,2.509,2.5222,2.5297,2.5421,2.5486,2.5643,2.5709,2.5787,2.5857,2.586,2.5925,2.5823,2.5831,2.5954,2.5955,2.5956,2.5957,2.5958,2.4934,2.4969,2.5041,2.5162,2.5241,2.539,2.546,2.5571,2.5675,2.5678,2.5725,2.5727,2.5743,2.5693,2.5692,2.5692,2.5692,2.5692,2.5691,2.4774,2.486,2.4905,2.5033,2.5096,2.5193,2.5358,2.5423,2.5523,2.5599,2.56,2.5695,2.5792,2.5814,2.5687,2.5687,2.5688,2.5689,2.5689,2.465,2.4697,2.4766,2.4829,2.4991,2.5062,2.5204,2.5327,2.5397,2.5427,2.5525,2.5578,2.5627,2.564,2.5658,2.5499,2.5499,2.5499,2.5499,2.4543,2.458,2.4678,2.4771,2.4876,2.5012,2.5087,2.5216,2.5356,2.5407,2.5447,2.5481,2.5489,2.5534,2.5549,2.5568,2.5389,2.5389,2.5389,2.4474,2.4527,2.4569,2.4709,2.4844,2.4957,2.5032,2.5134,2.5303,2.5387,2.545,2.5454,2.5511,2.5524,2.5606,2.5627,2.5664,0,0]}]]